Regional Weather Roundup
Issued by NWS

Home | Current Version | Previous Version | Graphics & Text | Print | Product List | Glossary Off
Versions: 1 2 3 4 5 6 7 8 9 10 11 12 13 14 15 16 17 18 19 20 21 22 23 24 25 26 27 28 29 30 31 32 33 34 35 36 37 38 39 40 41 42 43 44 45 46 47 48 49 50

000
ASUS43 KFSD 191510
RWRSD

WEATHER ROUNDUP FOR SOUTH DAKOTA
NATIONAL WEATHER SERVICE SIOUX FALLS SD
1000 AM CDT WED JUL 19 2017

NOTE: "FAIR" INDICATES FEW OR NO CLOUDS BELOW 12,000 FEET WITH NO
SIGNIFICANT WEATHER AND/OR OBSTRUCTIONS TO VISIBILITY.


SDZ001>005-009-010-012>017-191600-
NORTHWEST AND NORTH CENTRAL SOUTH DAKOTA

CITY           SKY/WX    TMP DP  RH WIND       PRES   REMARKS
BUFFALO          N/A     69  64  84 E23       29.90R
FAITH            N/A     65  60  84 NE28G37   29.97F
MOBRIDGE       CLOUDY    66  62  87 E22G32    29.96R
$$

SDZ012>016-024>037-041>051-057-063-072>074-191600-
SOUTHWEST AND SOUTH CENTRAL SOUTH DAKOTA

CITY           SKY/WX    TMP DP  RH WIND       PRES   REMARKS
RAPID CTY ARPT MOSUNNY   82  63  52 S22       29.94F
PIERRE         MOSUNNY   79  69  71 S13       29.89S
CUSTER         CLOUDY    76  57  51 SW12      30.14F
PHILIP         SUNNY     87  70  56 S15       29.90F
PINE RIDGE     CLOUDY    81  70  69 S21G28    30.01F
SPEARFISH      FAIR      91  55  29 NW14      29.96R
WINNER         FAIR      81  72  74 S18       29.94S
$$

SDZ004>011-016>023-039-040-191600-
NORTHEAST SOUTH DAKOTA

CITY           SKY/WX    TMP DP  RH WIND       PRES   REMARKS
ABERDEEN       LGT RAIN  65  62  90 N10       30.01R
WATERTOWN      MOSUNNY   76  69  79 SE17G23   29.98F
BROOKINGS      MOSUNNY   77  70  79 SE15      30.01F
SISSETON         N/A     68  63  84 SE9       29.99F
$$

SDZ017-020-022-023-036>040-048>070-191600-
SOUTHEAST SOUTH DAKOTA

CITY           SKY/WX    TMP DP  RH WIND       PRES   REMARKS
SIOUX FALLS    CLOUDY    77  73  87 SE12      30.01F
HURON          MOSUNNY   78  71  79 SE17G26   29.90F
CHAMBERLAIN    CLOUDY    81  75  81 SE12G17   29.92S
MITCHELL       SUNNY     80  73  79 SE18      29.95F
YANKTON        PTSUNNY   81  74  79 SE14      29.97F
$$

ABBREVIATIONS USED IN REMARKS
   TC - TEMPERATURE IN CELSIUS
  WCI - WIND CHILL INDEX
   HX - HEAT INDEX
  VSB - VISIBILITY





USA.gov is the U.S. government's official web portal to all federal, state and local government web resources and services.